CPA1401 LIMC-VHHH

Flight info

Callsign CPA1401
Flight time N/A
Altitude 30000
Route OSKOR DCT NEVNI DCT NOBMI DCT ELTAR DCT BARPI/N0484F310 DCT MAVIT DCT LAMIT DCT ASNEL DCT DINRO N743 UDROS UM859 BAMUP/N0482F330 UM859 KARDE UL851 TBN UM11 REBLO M11 MATAL T916 BALUN/K0889F330 T916 KUNAS N193 SR L163 TISIB/K0895F350 L141 KAMUD/K0887S1070 W186 SADAN Y1 OMBON W245 OVRAL/K0883S1130 B330 KWE W181 DUDIT A599 POU R473 SIERA
Aircraft B748/H-SDE3FGHIJ7M1M2RWXY/LB1

Departure

Time 2026-04-30 06:59
Airport Milan Malpensa International Airport (LIMC)

Arrival

Time N/A
Airport Hong Kong International Airport (VHHH)
Time Latitude Longitude Altitude Speed Heading
2026-04-30 06:29 45.64549 8.72521 781 ft 0 kts 306°
2026-04-30 06:44 45.64548 8.72522 781 ft 1 kts 306°
2026-04-30 06:44 45.64539 8.72540 781 ft 3 kts 298°
2026-04-30 06:44 45.64532 8.72564 781 ft 3 kts 281°
2026-04-30 06:44 45.64530 8.72587 781 ft 3 kts 256°
2026-04-30 06:45 45.64534 8.72605 781 ft 3 kts 226°
2026-04-30 06:45 45.64545 8.72619 781 ft 3 kts 199°
2026-04-30 06:45 45.64563 8.72625 781 ft 3 kts 182°
2026-04-30 06:45 45.64583 8.72625 781 ft 3 kts 171°
2026-04-30 06:46 45.64588 8.72624 781 ft 0 kts 169°
2026-04-30 06:50 45.64565 8.72630 781 ft 9 kts 169°
2026-04-30 06:50 45.64489 8.72630 781 ft 12 kts 225°
2026-04-30 06:50 45.64464 8.72524 781 ft 11 kts 259°
2026-04-30 06:50 45.64438 8.72427 781 ft 11 kts 203°
2026-04-30 06:51 45.64367 8.72442 781 ft 10 kts 168°
2026-04-30 06:51 45.64294 8.72464 781 ft 13 kts 168°
2026-04-30 06:51 45.64186 8.72496 781 ft 19 kts 169°
2026-04-30 06:51 45.64042 8.72536 781 ft 24 kts 168°
2026-04-30 06:52 45.63869 8.72588 781 ft 26 kts 169°
2026-04-30 06:52 45.63701 8.72634 781 ft 24 kts 169°
2026-04-30 06:52 45.63545 8.72678 781 ft 22 kts 168°
2026-04-30 06:52 45.63396 8.72720 781 ft 21 kts 169°
2026-04-30 06:53 45.63250 8.72760 781 ft 23 kts 169°
2026-04-30 06:53 45.63079 8.72807 781 ft 26 kts 168°
2026-04-30 06:53 45.62893 8.72858 781 ft 29 kts 169°
2026-04-30 06:53 45.62702 8.72912 781 ft 27 kts 169°
2026-04-30 06:54 45.62523 8.72960 781 ft 26 kts 169°
2026-04-30 06:54 45.62335 8.73013 781 ft 27 kts 169°
2026-04-30 06:54 45.62157 8.73061 781 ft 25 kts 169°
2026-04-30 06:54 45.61993 8.73107 781 ft 23 kts 168°
2026-04-30 06:55 45.61842 8.73148 781 ft 20 kts 169°
2026-04-30 06:55 45.61725 8.73235 781 ft 18 kts 124°
2026-04-30 06:55 45.61668 8.73364 781 ft 15 kts 122°
2026-04-30 06:55 45.61628 8.73454 781 ft 5 kts 122°
2026-04-30 06:56 45.61623 8.73464 781 ft 0 kts 122°
2026-04-30 06:56 45.61623 8.73465 781 ft 1 kts 122°
2026-04-30 06:56 45.61597 8.73529 781 ft 11 kts 112°
2026-04-30 06:57 45.61592 8.73637 781 ft 11 kts 80°
2026-04-30 06:57 45.61610 8.73732 781 ft 5 kts 34°
2026-04-30 06:57 45.61639 8.73731 781 ft 2 kts 347°
2026-04-30 06:58 45.61640 8.73731 781 ft 3 kts 347°
2026-04-30 06:58 45.61827 8.73678 781 ft 54 kts 349°
2026-04-30 06:58 45.62376 8.73526 781 ft 107 kts 350°
2026-04-30 06:58 45.63275 8.73280 781 ft 156 kts 349°
2026-04-30 06:59 45.64484 8.72941 788 ft 196 kts 350°
2026-04-30 06:59 45.65867 8.72551 1122 ft 201 kts 353°
2026-04-30 06:59 45.67238 8.72490 1826 ft 194 kts
2026-04-30 06:59 45.68580 8.72477 2489 ft 192 kts
2026-04-30 07:00 45.69918 8.72475 2866 ft 195 kts
2026-04-30 07:00 45.71313 8.72536 3115 ft 200 kts
2026-04-30 07:00 45.72648 8.73090 3250 ft 207 kts 28°
2026-04-30 07:00 45.73803 8.74373 3424 ft 211 kts 51°
2026-04-30 07:01 45.74457 8.76240 3675 ft 212 kts 75°
2026-04-30 07:01 45.74464 8.78305 4028 ft 211 kts 98°
2026-04-30 07:01 45.74081 8.80295 4519 ft 207 kts 103°
2026-04-30 07:01 45.73623 8.82327 4634 ft 221 kts 108°
2026-04-30 07:02 45.73077 8.84408 4958 ft 223 kts 110°
2026-04-30 07:02 45.72490 8.86478 5301 ft 227 kts 111°
2026-04-30 07:02 45.71718 8.88466 5599 ft 233 kts 126°
2026-04-30 07:02 45.70459 8.89971 5865 ft 242 kts 147°
2026-04-30 07:03 45.68834 8.90735 6154 ft 251 kts 165°
2026-04-30 07:03 45.67071 8.90946 6447 ft 258 kts 173°
2026-04-30 07:03 45.65265 8.90936 6752 ft 261 kts 176°
2026-04-30 07:03 45.63441 8.90910 7086 ft 263 kts 175°
2026-04-30 07:04 45.61598 8.90945 7375 ft 267 kts 175°
2026-04-30 07:04 45.59758 8.91002 7817 ft 259 kts 176°
2026-04-30 07:04 45.58006 8.91117 8395 ft 247 kts 174°
2026-04-30 07:04 45.56301 8.91301 8715 ft 247 kts 174°
2026-04-30 07:05 45.52781 8.91811 8951 ft 261 kts 160°
2026-04-30 07:05 45.51245 8.93138 9102 ft 260 kts 133°
2026-04-30 07:05 45.50281 8.95289 9324 ft 258 kts 114°
2026-04-30 07:06 45.49670 8.97710 9503 ft 263 kts 107°
2026-04-30 07:06 45.49213 9.00263 9640 ft 270 kts 101°
2026-04-30 07:06 45.48866 9.02945 9763 ft 280 kts 97°
2026-04-30 07:06 45.48575 9.05728 9997 ft 286 kts 96°
2026-04-30 07:07 45.48285 9.08552 10330 ft 289 kts 96°
2026-04-30 07:07 45.47974 9.11407 10565 ft 298 kts 97°
2026-04-30 07:07 45.47638 9.14385 10656 ft 311 kts 97°
2026-04-30 07:07 45.47281 9.17506 10769 ft 327 kts 97°
2026-04-30 07:08 45.46910 9.20718 11025 ft 338 kts 97°
2026-04-30 07:08 45.46547 9.24063 11426 ft 345 kts 92°
2026-04-30 07:08 45.46755 9.27451 11849 ft 346 kts 72°
2026-04-30 07:08 45.47610 9.30676 12307 ft 351 kts 64°
2026-04-30 07:09 45.48712 9.33811 12761 ft 358 kts 59°
2026-04-30 07:09 45.49997 9.36881 13214 ft 364 kts 56°
2026-04-30 07:09 45.51371 9.39966 13668 ft 372 kts 55°
2026-04-30 07:09 45.52739 9.43139 14121 ft 379 kts 56°
2026-04-30 07:10 45.54107 9.46380 14572 ft 386 kts 56°
2026-04-30 07:10 45.55409 9.49773 15019 ft 394 kts 64°
2026-04-30 07:10 45.56340 9.53501 15473 ft 403 kts 71°
2026-04-30 07:10 45.57055 9.57402 15925 ft 410 kts 74°
2026-04-30 07:11 45.57645 9.61421 16378 ft 417 kts 76°
2026-04-30 07:11 45.58190 9.65506 16830 ft 422 kts 76°
2026-04-30 07:11 45.58786 9.69643 17283 ft 427 kts 75°
2026-04-30 07:11 45.59413 9.73806 17778 ft 431 kts 76°
2026-04-30 07:12 45.60033 9.77999 18408 ft 431 kts 76°
2026-04-30 07:12 45.60643 9.82178 19031 ft 431 kts 76°
2026-04-30 07:12 45.61251 9.86370 19657 ft 431 kts 76°
2026-04-30 07:12 45.61857 9.90557 20283 ft 430 kts 76°
2026-04-30 07:13 45.62458 9.94729 20907 ft 428 kts 76°
2026-04-30 07:13 45.63056 9.98886 21532 ft 426 kts 75°
2026-04-30 07:13 45.63651 10.03021 22157 ft 424 kts 75°
2026-04-30 07:13 45.64243 10.07132 22782 ft 421 kts 75°
2026-04-30 07:14 45.64751 10.11237 23407 ft 419 kts 80°
2026-04-30 07:14 45.64972 10.15369 23958 ft 419 kts 84°
2026-04-30 07:14 45.65004 10.19562 24287 ft 424 kts 87°
2026-04-30 07:14 45.64937 10.23786 24614 ft 427 kts 88°
2026-04-30 07:15 45.64881 10.28053 24857 ft 433 kts 88°
2026-04-30 07:15 45.64851 10.32418 25063 ft 439 kts 87°
2026-04-30 07:15 45.64828 10.36784 25264 ft 446 kts 87°
2026-04-30 07:15 45.64806 10.41251 25466 ft 453 kts 87°
2026-04-30 07:16 45.64795 10.45777 25666 ft 459 kts 87°
2026-04-30 07:16 45.64798 10.48811 25799 ft 464 kts 87°
2026-04-30 07:16 45.64804 10.55041 26070 ft 472 kts 87°
2026-04-30 07:16 45.64803 10.59754 26271 ft 479 kts 87°
2026-04-30 07:17 45.64800 10.62927 26405 ft 483 kts 87°
2026-04-30 07:17 45.64749 10.69392 26673 ft 491 kts 88°
2026-04-30 07:17 45.64623 10.79270 27076 ft 502 kts 88°
2026-04-30 07:18 45.64579 10.82583 27210 ft 506 kts 88°
2026-04-30 07:18 45.64511 10.87635 27411 ft 511 kts 88°
2026-04-30 07:18 45.64440 10.92731 27637 ft 514 kts 88°
2026-04-30 07:18 45.64341 10.99541 28247 ft 511 kts 88°
2026-04-30 07:19 45.64291 11.02894 28641 ft 507 kts 88°
2026-04-30 07:19 45.64215 11.07919 29063 ft 506 kts 88°
2026-04-30 07:19 45.64141 11.12939 29399 ft 506 kts 88°
2026-04-30 07:19 45.64109 11.17965 29694 ft 506 kts 87°
2026-04-30 07:20 45.64067 11.22999 29934 ft 508 kts 88°
2026-04-30 07:20 45.64012 11.28052 30222 ft 508 kts 88°
2026-04-30 07:20 45.63948 11.33102 30317 ft 508 kts 88°
2026-04-30 07:21 45.63802 11.43203 30318 ft 508 kts 88°
2026-04-30 07:21 45.63641 11.53275 30319 ft 508 kts 88°
2026-04-30 07:22 45.63380 11.68410 30319 ft 508 kts 88°
2026-04-30 07:22 45.63195 11.78482 30325 ft 507 kts 88°
2026-04-30 07:23 45.63000 11.88559 30345 ft 507 kts 88°
2026-04-30 07:23 45.62795 11.98705 30350 ft 517 kts 88°
2026-04-30 07:24 45.62576 12.09094 30347 ft 529 kts 89°
2026-04-30 07:24 45.62343 12.19703 30345 ft 536 kts 89°
2026-04-30 07:25 45.62099 12.30332 30341 ft 535 kts 89°
2026-04-30 07:25 45.61846 12.40935 30331 ft 534 kts 89°
2026-04-30 07:26 45.61584 12.51533 30327 ft 534 kts 89°
2026-04-30 07:26 45.61311 12.62123 30326 ft 534 kts 89°
2026-04-30 07:27 45.61029 12.72732 30326 ft 534 kts 89°
2026-04-30 07:27 45.60738 12.83307 30321 ft 532 kts 89°
2026-04-30 07:28 45.60438 12.93830 30318 ft 529 kts 89°
2026-04-30 07:28 45.60133 13.04199 30391 ft 516 kts 89°
2026-04-30 07:29 45.60002 13.09222 30802 ft 513 kts 89°
2026-04-30 07:29 45.59873 13.14329 30870 ft 516 kts 89°
2026-04-30 07:29 45.59717 13.19465 30996 ft 519 kts 89°
2026-04-30 07:29 45.59548 13.24611 31122 ft 521 kts 89°
2026-04-30 07:30 45.59193 13.35063 31236 ft 528 kts 90°
2026-04-30 07:30 45.59015 13.40237 31253 ft 530 kts 90°
2026-04-30 07:31 45.58653 13.50772 31266 ft 532 kts 90°
2026-04-30 07:31 45.58428 13.61337 31251 ft 532 kts 88°
2026-04-30 07:32 45.58322 13.71875 31197 ft 531 kts 88°
2026-04-30 07:32 45.58210 13.80146 31156 ft 531 kts 88°
2026-04-30 07:33 45.58046 13.90694 31149 ft 531 kts 88°
2026-04-30 07:33 45.57869 14.01233 31164 ft 531 kts 88°
2026-04-30 07:34 45.57771 14.11774 31177 ft 531 kts 88°
2026-04-30 07:34 45.57638 14.22315 31187 ft 531 kts 88°
2026-04-30 07:35 45.57472 14.32918 31200 ft 536 kts 88°
2026-04-30 07:35 45.57287 14.43501 31223 ft 537 kts 88°
2026-04-30 07:36 45.57089 14.54163 31244 ft 537 kts 89°
2026-04-30 07:36 45.56881 14.64812 31266 ft 536 kts 89°
2026-04-30 07:37 45.56662 14.75437 31323 ft 535 kts 89°
2026-04-30 07:37 45.56434 14.86026 31354 ft 534 kts 89°
2026-04-30 07:38 45.56197 14.96619 31356 ft 533 kts 89°
2026-04-30 07:38 45.55950 15.07198 31370 ft 536 kts 89°
2026-04-30 07:39 45.55691 15.17856 31384 ft 537 kts 89°
2026-04-30 07:39 45.55422 15.28486 31396 ft 536 kts 89°
2026-04-30 07:40 45.55145 15.39089 31407 ft 535 kts 89°
2026-04-30 07:40 45.54858 15.49691 31416 ft 534 kts 89°
2026-04-30 07:41 45.54564 15.60208 31409 ft 534 kts 89°
2026-04-30 07:41 45.54255 15.70870 31412 ft 534 kts 89°
2026-04-30 07:42 45.53941 15.81391 31417 ft 534 kts 89°
2026-04-30 07:42 45.53615 15.91979 31421 ft 534 kts 89°
2026-04-30 07:43 45.53279 16.02566 31422 ft 534 kts 89°
2026-04-30 07:43 45.52933 16.13166 31423 ft 534 kts 90°
2026-04-30 07:44 45.52577 16.23783 31422 ft 535 kts 90°
2026-04-30 07:44 45.52213 16.34334 31418 ft 535 kts 90°
2026-04-30 07:45 45.51842 16.44800 31439 ft 528 kts 89°
2026-04-30 07:45 45.51463 16.55256 31425 ft 529 kts 90°
2026-04-30 07:46 45.51069 16.65835 31431 ft 538 kts 90°
2026-04-30 07:46 45.50659 16.76559 31430 ft 542 kts 90°
2026-04-30 07:47 45.50239 16.87273 31427 ft 543 kts 90°
2026-04-30 07:47 45.49809 16.98014 31425 ft 545 kts 90°
2026-04-30 07:48 45.49367 17.08842 31414 ft 552 kts 91°
2026-04-30 07:48 45.48905 17.19815 31414 ft 559 kts 92°
2026-04-30 07:49 45.48426 17.30939 31413 ft 560 kts 92°
2026-04-30 07:49 45.47941 17.41974 31407 ft 558 kts 92°
2026-04-30 07:50 45.47447 17.52990 31412 ft 560 kts 92°
2026-04-30 07:50 45.46938 17.64090 31408 ft 564 kts 92°
2026-04-30 07:51 45.46415 17.75247 31407 ft 563 kts 92°
2026-04-30 07:51 45.45884 17.86342 31407 ft 563 kts 92°
2026-04-30 07:52 45.45338 17.97520 31408 ft 561 kts 92°
2026-04-30 07:52 45.44789 18.08551 31407 ft 559 kts 92°
2026-04-30 07:53 45.44231 18.19550 31407 ft 559 kts 92°
2026-04-30 07:53 45.43661 18.30566 31407 ft 558 kts 92°
2026-04-30 07:54 45.43079 18.41614 31408 ft 557 kts 93°
2026-04-30 07:54 45.42490 18.52598 31407 ft 557 kts 93°
2026-04-30 07:55 45.41890 18.63563 31407 ft 556 kts 93°
2026-04-30 07:55 45.41281 18.74513 31407 ft 556 kts 93°
2026-04-30 07:56 45.40658 18.85534 31408 ft 556 kts 93°
2026-04-30 07:56 45.40027 18.96496 31407 ft 556 kts 93°
2026-04-30 07:57 45.39386 19.07448 31407 ft 556 kts 93°
2026-04-30 07:57 45.38737 19.18368 31407 ft 555 kts 93°
2026-04-30 07:58 45.38074 19.29339 31408 ft 559 kts 94°
2026-04-30 07:58 45.37396 19.40371 31409 ft 559 kts 94°
2026-04-30 07:59 45.36712 19.51313 31391 ft 555 kts 93°
2026-04-30 07:59 45.36020 19.62235 31386 ft 556 kts 93°
2026-04-30 08:00 45.34960 19.78664 31381 ft 557 kts 93°
2026-04-30 08:00 45.34236 19.89667 31377 ft 558 kts 94°
2026-04-30 08:01 45.33503 20.00645 31373 ft 559 kts 94°
2026-04-30 08:01 45.32760 20.11602 31373 ft 559 kts 94°
2026-04-30 08:02 45.31619 20.28171 31372 ft 564 kts 94°
2026-04-30 08:03 45.30185 20.48465 31335 ft 564 kts 95°
2026-04-30 08:04 45.29387 20.59553 31331 ft 564 kts 95°
2026-04-30 08:04 45.28446 20.72434 31329 ft 564 kts 95°
2026-04-30 08:05 45.27758 20.81719 31327 ft 564 kts 95°
2026-04-30 08:05 45.26972 20.92800 31324 ft 564 kts 95°
2026-04-30 08:06 45.26126 21.03889 31322 ft 566 kts 95°
2026-04-30 08:06 45.25257 21.14927 31320 ft 567 kts 95°
2026-04-30 08:07 45.24376 21.26056 31319 ft 568 kts 95°
2026-04-30 08:07 45.23563 21.37199 31319 ft 568 kts 94°
2026-04-30 08:08 45.22940 21.48363 31319 ft 567 kts 94°
2026-04-30 08:08 45.22272 21.59577 31318 ft 565 kts 94°
2026-04-30 08:09 45.21588 21.70656 31319 ft 563 kts 94°
2026-04-30 08:09 45.20904 21.81709 31319 ft 561 kts 93°
2026-04-30 08:10 45.20290 21.92733 31319 ft 559 kts 93°
2026-04-30 08:10 45.19622 22.03709 31319 ft 558 kts 94°
2026-04-30 08:11 45.18930 22.14673 31318 ft 558 kts 94°
2026-04-30 08:11 45.18225 22.25624 31319 ft 558 kts 94°
2026-04-30 08:12 45.17508 22.36575 31319 ft 558 kts 94°
2026-04-30 08:12 45.16781 22.47514 31319 ft 558 kts 94°
2026-04-30 08:13 45.16043 22.58454 31318 ft 557 kts 94°
2026-04-30 08:13 45.15295 22.69380 31319 ft 557 kts 94°
2026-04-30 08:14 45.14535 22.80338 31319 ft 560 kts 95°
2026-04-30 08:14 45.13765 22.91300 31318 ft 559 kts 94°
2026-04-30 08:15 45.13032 23.02230 31317 ft 557 kts 94°
2026-04-30 08:15 45.12212 23.13144 31315 ft 558 kts 97°
2026-04-30 08:16 45.10220 23.23765 31309 ft 559 kts 106°
2026-04-30 08:16 45.07892 23.34255 31300 ft 558 kts 107°
2026-04-30 08:17 45.05553 23.44658 31298 ft 559 kts 107°
2026-04-30 08:17 45.03178 23.55199 31297 ft 559 kts 108°
2026-04-30 08:18 45.00807 23.65675 31296 ft 560 kts 108°
2026-04-30 08:18 44.98404 23.76258 31294 ft 566 kts 108°
2026-04-30 08:19 44.95991 23.86818 31296 ft 571 kts 108°
2026-04-30 08:19 44.93546 23.97468 31296 ft 570 kts 108°
2026-04-30 08:20 44.91079 24.08163 31297 ft 569 kts 109°
2026-04-30 08:20 44.88614 24.18807 31290 ft 572 kts 109°
2026-04-30 08:21 44.86145 24.29404 31289 ft 572 kts 109°
2026-04-30 08:21 44.83640 24.40108 31289 ft 572 kts 109°
2026-04-30 08:22 44.81137 24.50751 31289 ft 572 kts 109°
2026-04-30 08:22 44.78642 24.61310 31289 ft 572 kts 110°
2026-04-30 08:23 44.76124 24.71918 31289 ft 572 kts 110°
2026-04-30 08:23 44.73590 24.82538 31289 ft 572 kts 110°
2026-04-30 08:24 44.71034 24.93204 31289 ft 572 kts 110°
2026-04-30 08:24 44.68485 25.03815 31296 ft 575 kts 111°
2026-04-30 08:25 44.65865 25.14625 31300 ft 579 kts 111°
2026-04-30 08:25 44.63291 25.25210 31303 ft 578 kts 112°
2026-04-30 08:26 44.60665 25.35951 31303 ft 578 kts 112°
2026-04-30 08:26 44.58053 25.46597 31303 ft 577 kts 112°
2026-04-30 08:27 44.55431 25.57233 31304 ft 577 kts 112°
2026-04-30 08:27 44.52817 25.67789 31304 ft 577 kts 112°
2026-04-30 08:28 44.50174 25.78408 31305 ft 577 kts 112°
2026-04-30 08:28 44.47524 25.89005 31305 ft 577 kts 112°
2026-04-30 08:29 44.44865 25.99598 31300 ft 577 kts 112°
2026-04-30 08:29 44.42195 26.10174 31301 ft 577 kts 112°
2026-04-30 08:30 44.39513 26.20752 31299 ft 576 kts 112°
2026-04-30 08:30 44.36826 26.31310 31301 ft 576 kts 112°
2026-04-30 08:31 44.34128 26.41862 31299 ft 576 kts 112°
2026-04-30 08:31 44.31423 26.52391 31303 ft 576 kts 113°
2026-04-30 08:32 44.28705 26.62924 31302 ft 576 kts 113°
2026-04-30 08:32 44.25958 26.73514 31302 ft 576 kts 113°
2026-04-30 08:33 44.23235 26.83972 31299 ft 577 kts 113°
2026-04-30 08:33 44.20474 26.94532 31298 ft 577 kts 113°
2026-04-30 08:34 44.17717 27.05030 31294 ft 577 kts 113°
2026-04-30 08:34 44.14952 27.15511 31290 ft 577 kts 113°
2026-04-30 08:35 44.12175 27.25990 31288 ft 577 kts 113°
2026-04-30 08:35 44.09389 27.36455 31260 ft 576 kts 113°
2026-04-30 08:36 44.06617 27.46827 31257 ft 576 kts 113°
2026-04-30 08:36 44.03799 27.57325 31255 ft 576 kts 113°
2026-04-30 08:37 44.01011 27.67668 31253 ft 576 kts 113°
2026-04-30 08:37 43.98173 27.78150 31252 ft 576 kts 113°
2026-04-30 08:38 43.95368 27.88467 31252 ft 576 kts 113°
2026-04-30 08:38 43.92530 27.98865 31249 ft 576 kts 113°
2026-04-30 08:39 43.90164 28.07499 31249 ft 576 kts 114°
2026-04-30 08:39 43.86830 28.19615 31250 ft 576 kts 114°
2026-04-30 08:40 43.84448 28.28241 31249 ft 576 kts 114°
2026-04-30 08:40 43.81580 28.38592 31250 ft 576 kts 114°
2026-04-30 08:41 43.78834 28.49014 31250 ft 576 kts 113°
2026-04-30 08:41 43.75959 28.59363 31249 ft 576 kts 114°
2026-04-30 08:42 43.73077 28.69690 31249 ft 576 kts 114°
2026-04-30 08:42 43.70044 28.79924 31245 ft 573 kts 122°
2026-04-30 08:43 43.65779 28.89161 31250 ft 568 kts 129°
2026-04-30 08:43 43.61097 28.97917 31248 ft 566 kts 131°
2026-04-30 08:44 43.56417 29.06656 31248 ft 566 kts 131°
2026-04-30 08:44 43.51777 29.15380 31248 ft 566 kts 130°
2026-04-30 08:45 43.47162 29.24158 31248 ft 566 kts 130°
2026-04-30 08:45 43.42548 29.32938 31248 ft 566 kts 130°
2026-04-30 08:46 43.37909 29.41688 31248 ft 566 kts 130°
2026-04-30 08:46 43.33259 29.50418 31248 ft 566 kts 130°
2026-04-30 08:47 43.28603 29.59129 31248 ft 566 kts 131°
2026-04-30 08:47 43.23941 29.67823 31248 ft 566 kts 131°
2026-04-30 08:48 43.19265 29.76520 31248 ft 566 kts 131°
2026-04-30 08:48 43.14590 29.85189 31248 ft 566 kts 131°
2026-04-30 08:49 43.09907 29.93846 31248 ft 566 kts 131°
2026-04-30 08:49 43.05221 30.02487 31254 ft 566 kts 131°
2026-04-30 08:50 43.00519 30.11127 31258 ft 567 kts 131°
2026-04-30 08:50 42.95811 30.19758 31259 ft 566 kts 131°
2026-04-30 08:51 42.91116 30.28395 31261 ft 566 kts 131°
2026-04-30 08:51 42.86401 30.37002 31261 ft 566 kts 132°
2026-04-30 08:52 42.81663 30.45579 31261 ft 566 kts 132°
2026-04-30 08:52 42.76931 30.54140 31258 ft 567 kts 130°
2026-04-30 08:52 42.74982 30.58808 31256 ft 571 kts 116°
2026-04-30 08:53 42.73697 30.63957 31263 ft 578 kts 109°
2026-04-30 08:53 42.72125 30.74727 31263 ft 583 kts 99°
2026-04-30 08:54 42.71148 30.85598 31260 ft 583 kts 98°
2026-04-30 08:54 42.70065 30.96560 31258 ft 583 kts 99°
2026-04-30 08:55 42.68937 31.07440 31261 ft 583 kts 99°
2026-04-30 08:55 42.67854 31.18386 31259 ft 583 kts 99°
2026-04-30 08:56 42.66722 31.29262 31262 ft 583 kts 99°
2026-04-30 08:56 42.65566 31.40138 31260 ft 583 kts 99°
2026-04-30 08:57 42.64394 31.51043 31259 ft 583 kts 99°
2026-04-30 08:57 42.63235 31.61932 31261 ft 583 kts 99°
2026-04-30 08:58 42.62059 31.72851 31202 ft 578 kts 99°
2026-04-30 08:58 42.60874 31.83424 31150 ft 563 kts 99°
2026-04-30 08:59 42.59693 31.93892 31142 ft 562 kts 99°
2026-04-30 08:59 42.58498 32.04368 31142 ft 563 kts 101°
2026-04-30 09:00 42.57201 32.14824 31141 ft 563 kts 99°
2026-04-30 09:00 42.56017 32.25314 31141 ft 563 kts 99°
2026-04-30 09:01 42.54792 32.35827 31142 ft 563 kts 100°
2026-04-30 09:01 42.53558 32.46289 31142 ft 563 kts 100°
2026-04-30 09:02 42.51756 32.62038 31142 ft 563 kts 99°
2026-04-30 09:02 42.50538 32.72504 31142 ft 563 kts 99°
2026-04-30 09:03 42.49316 32.82975 31141 ft 563 kts 100°
2026-04-30 09:03 42.48042 32.93390 31141 ft 563 kts 100°
2026-04-30 09:04 42.46748 33.03891 31142 ft 563 kts 100°
2026-04-30 09:04 42.45462 33.14321 31142 ft 563 kts 100°
2026-04-30 09:05 42.44207 33.24738 31141 ft 563 kts 100°
2026-04-30 09:05 42.42904 33.35231 31141 ft 563 kts 100°
2026-04-30 09:06 42.41603 33.45643 31142 ft 563 kts 101°
2026-04-30 09:06 42.40322 33.56044 31208 ft 563 kts 101°
2026-04-30 09:07 42.38976 33.66496 31207 ft 564 kts 101°
2026-04-30 09:07 42.37607 33.76994 31210 ft 564 kts 101°
2026-04-30 09:08 42.36248 33.87399 31213 ft 564 kts 101°
2026-04-30 09:08 42.34889 33.97828 31215 ft 564 kts 100°
2026-04-30 09:09 42.33559 34.08287 31218 ft 564 kts 101°
2026-04-30 09:09 42.32172 34.18691 31720 ft 559 kts 101°
2026-04-30 09:10 42.31481 34.23839 32144 ft 556 kts 101°
2026-04-30 09:10 42.30792 34.28954 32553 ft 553 kts 101°
2026-04-30 09:10 42.30102 34.34078 32698 ft 555 kts 101°
2026-04-30 09:10 42.29410 34.39223 32826 ft 557 kts 101°
2026-04-30 09:11 42.28732 34.44387 32952 ft 559 kts 101°
2026-04-30 09:11 42.28035 34.49555 33078 ft 561 kts 101°
2026-04-30 09:11 42.27318 34.54750 33201 ft 562 kts 101°
2026-04-30 09:11 42.26595 34.59941 33225 ft 562 kts 101°
2026-04-30 09:12 42.25143 34.70313 33230 ft 562 kts 102°
2026-04-30 09:12 42.23692 34.80671 33230 ft 562 kts 101°
2026-04-30 09:13 42.22236 34.91029 33230 ft 562 kts 102°
2026-04-30 09:13 42.20788 35.01393 33230 ft 562 kts 101°